Regional Weather Roundup
Issued by NWS Wakefield, VA

Home | Current Version | Previous Version | Text Only | Print | Product List | Glossary On
Versions: 1 2 3 4 5 6 7 8 9 10 11 12 13 14 15 16 17 18 19 20 21 22 23 24 25 26 27
000
ASUS41 KAKQ 221115
RWRAKQ

REGIONAL WEATHER ROUNDUP
NATIONAL WEATHER SERVICE WAKEFIELD VA
700 AM EDT SUN OCT 22 2017

Note: "fair" indicates few or no clouds below 12,000 feet with no
significant weather and/or obstructions to visibility. * = Denotes
station may not report precipitation (e.g., rain,snow,etc.),
thunder or fog.

VAZ042-051-052>054-056-221200-
NORTHERN VIRGINIA

CITY           SKY/WX    TMP DP  RH WIND       PRES   REMARKS
WASH NATIONAL  MOCLDY    55  51  86 N3        30.39R
DULLES         PTCLDY    47  46  97 NW3       30.38R
FORT BELVOIR   PTCLDY    46  45  96 CALM      30.38R
QUANTICO       PTCLDY    50  50 100 NW7       30.39R
FREDERICKSBRG* PTCLDY    47  47 100 CALM      30.37S
STAFFORD*      CLEAR     43  43 100 CALM      30.42S
WARRENTON      CLEAR     42  39  89 CALM      30.37S
CULPEPER*      CLEAR     45  44  95 CALM      30.38S
MANASSAS*      CLEAR     43  43 100 CALM      30.38R
LEESBURG*      PTCLDY    46  46 100 N3        30.39R
WINCHESTER     PTCLDY    43  43 100 CALM      30.36R
FRONT ROYAL*   SUNNY     45  45 100 CALM      30.36S
LURAY*         SUNNY     46  46 100 CALM      30.36S
$$

VAZ048-049-060>072-079>083-221200-
CENTRAL AND SOUTH CENTRAL VIRGINIA

CITY           SKY/WX    TMP DP  RH WIND       PRES   REMARKS
RICHMOND       PTCLDY    51  50  96 CALM      30.36R
CHESTERFIELD*  NOT AVBL
PETERSBURG*    CLOUDY   N/A N/A N/A CALM      30.37R HAZE
HANOVER        PTCLDY    49  48  97 CALM      30.38R
TAPPAHANNOCK*  FOG      N/A N/A N/A CALM      30.38R VSB 1/2
QUINTON*       FAIR      49  49 100 CALM      30.36S
CHARLOTTSVILLE CLEAR     52  49  89 CALM      30.36S
GORDONSVILLE*  SUNNY     46  46 100 CALM      30.36S
ORANGE*        CLEAR     45  45 100 CALM      30.36S
LOUISA*          N/A     45  45 100 CALM      30.36S FOG
BUMPASS*       FAIR      47  47 100 CALM      30.37R
FARMVILLE*     FOG       47  47 100 CALM      30.35S VSB 1/2
CREWE*         FAIR      47  47 100 CALM      30.35S
FORT PICKETT*    N/A     52  52 100 SW6       30.36S VSB 1/2
CHASE CITY*    FAIR      52  52 100 CALM      30.36S
CLARKSVILLE*     N/A     52  52 100 CALM      30.35S VSB 3/4
SOUTH HILL*    CLOUDY    51  51 100 CALM      30.42R
LAWRENCEVILLE* FAIR      52  51  97 CALM      30.36R
EMPORIA*       CLOUDY    46  46 100 CALM      30.38R
$$

VAZ088>098-221200-
SOUTHEAST VIRGINIA

CITY           SKY/WX    TMP DP  RH WIND       PRES   REMARKS
NORFOLK        CLOUDY    57  56  96 CALM      30.36R
VIRGINIA BEACH PTCLDY    52  50  93 CALM      30.35S
NORFOLK NAVAL  CLOUDY    54  52  93 CALM      30.38R
WEST POINT*    CLOUDY    48  48 100 CALM      30.39R
SALUDA*        FAIR      51  51 100 CALM      30.37S
NEWPORT NEWS   FOG       51  49  92 CALM      30.37R VSB 1
LANGLEY AFB    CLOUDY    53  53 100 CALM      30.36S
FORT EUSTIS    MOCLDY    54  51  90 CALM      30.34R
WILLIAMSBURG*  PTCLDY    55  55 100 CALM      30.38R
HR EXEC AP*    NOT AVBL
FRANKLIN*      CLOUDY    48  47  96 CALM      30.37R
US460-WAKEFLD  CLOUDY    50  49  96 CALM      30.37R
$$

VAZ020-022-025-037-045-221200-
WEST CENTRAL AND SOUTHWEST VIRGINIA

CITY           SKY/WX    TMP DP  RH WIND       PRES   REMARKS
STAUNTON*      PTCLDY    42  41  96 CALM      30.39R
WAYNESBORO*    MOSUNNY   48  48  99 CALM      30.37R
HOT SPRINGS VA CLEAR     55  44  66 CALM      30.41S
LYNCHBURG      CLEAR     49  49 100 CALM      30.36R
DANVILLE       CLOUDY    48  48 100 CALM      30.35S
SOUTH BOSTON*  CLOUDY    46  45  95 CALM      30.35S
MARTINSVILLE   PTCLDY    44  44  98 CALM      30.38R
ROANOKE        CLOUDY    52  51  97 CALM      30.38R
BLACKSBURG     CLEAR     49  48  97 CALM      30.39S
DUBLIN*        FOG       46  46 100 CALM      30.37S VSB<1/4
MARION*        CLOUDY    48  44  87 SE3       30.38R
HILLSVILLE*    CLEAR     52  45  77 CALM      30.35F
RICHLANDS*     FAIR      57  -1   9 SE5       30.32S
WISE*          PTCLDY    59  46  63 S8        30.32S
ABINGDON*      CLEAR     52  48  86 E6        30.32S
$$

MDZ021>025-VAZ099-100-221200-
SOUTHERN MARYLAND AND THE DELMARVA PENINSULA

CITY           SKY/WX    TMP DP  RH WIND       PRES   REMARKS
PATUXENT RIVER FOG       49  49 100 W3        30.38R VSB 1/2
BAY BRIDGE APT CLEAR     52  52 100 CALM      30.38S FOG
LEONARDTOWN    NOT AVBL
DOVER          PTCLDY    50  49  98 W3        30.38R FOG
GEORGETOWN     FOG       49  48  97 CALM      30.39R VSB 1/4
EASTON         PTCLDY    48  46  93 CALM      30.42R
CAMBRIDGE      CLEAR     46  46 100 CALM      30.38R
SALISBURY      FOG       49  49 100 CALM      30.38S VSB 1/4
OCEAN CITY     CLEAR     48  48 100 CALM      30.39R
WALLOPS ISLAND FOG       50  50 100 CALM      30.38R VSB 1
ACCOMACK*      CLOUDY    49  49  99 CALM      30.37S
$$

NCZ012>017-030>032-221200-
NORTH CENTRAL AND EASTERN NORTH CAROLINA

CITY           SKY/WX    TMP DP  RH WIND       PRES   REMARKS
ROANOKE RAPIDS FAIR      50  50 100 CALM      30.35S
RALEIGH        CLOUDY    54  54 100 CALM      30.35R
ELIZABETH CITY CLOUDY    54  54 100 N3        30.35S FOG
AHOSKIE*       PTCLDY    50  50 100 CALM      30.36S
EDENTON*       CLOUDY    53  51  92 CALM      30.35S
CURRITUCK*     CLOUDY    53  53  97 CALM      30.36S
KILL DEVIL HLS CLOUDY    66  62  88 CALM      30.33S
MANTEO         CLOUDY   N/A N/A N/A NE3       30.34S
CAPE HATTERAS  CLEAR     65  60  84 NE5       30.33R
TARBORO*       NOT AVBL
GOLDSBORO      MOCLDY    53  51  94 CALM      30.32R FOG
WASHINGTON     PTCLDY    53  52  97 CALM      30.35R
GREENVILLE     FOG       52  52 100 CALM      30.35R VSB 1/4
NEW BERN       PTCLDY    56  56 100 CALM      30.34S
WILMINGTON     PTCLDY    59  57  93 NE5       30.31R
$$

VAZ048-221200-
ELSEWHERE

CITY           SKY/WX    TMP DP  RH WIND       PRES   REMARKS
HARRISBURG PA  PTCLDY    47  45  93 E3        30.37S
BALTIMORE      MOCLDY    45  45 100 CALM      30.38R
ANNAPOLIS      PTCLDY    54  54 100 CALM      30.38R
ANDREWS AFB    PTCLDY    47  46  94 CALM      30.37R
PHILADELPHIA   FOG       53  51  93 CALM      30.39R VSB 1/4
HENDERSON NC   CLOUDY    53  51  92 CALM      30.35S
GREENSBORO     PTCLDY    53  51  93 CALM      30.34R
ROCKY MOUNT    MOCLDY    52  52 100 CALM      30.35S FOG
$$

VAZ100-221200-
MARINE

STATION/POSITION TIME  TEMP    WIND        PRES    WAVE   SWELL
                       AIR SEA DIR/SP/G            HT/PER HT/PER
                 (UTC) (F)     (DEG/KT/KT) (MB)    (FT/S) (FT/S)
BRANDYWINE LGT   1042   65     200/  2/  3 1029.2R
CAPE MAY NJ      1048   55 65   80/  1/  2 1028.4R
LEWES DE         1042   58 66   CALM  /  1 1028.6R
15NM E FENWICK I 1050   66 67  100/  8/ 10 1029.0R   2/ 8   2/ 8
OCEAN-CITY-INLET 1042   65 66  150/  3/  5 1029.1R
WACHAPREAGUE VA  1042   55 66     CALM     1028.5R
THOMAS POINT MD  1100   61 68  260/  3/  3   N/A
GOOSES REEF MD   1100   64 68  280/  2/  2 1028.0    0
COVE POINT MD    1042   62      CALM  /  1 1029.4R
SOLOMONS ISLAND  1042   58 69  330/  2/  3 1028.3R
BISHOPS HEAD MD  1042   63 66  100/  4/  5 1028.9R
PINEY POINT MD   1042           CALM  /  1   N/A
POTOMAC MD       1100   64 68  260/  2/  2 1028.1    0
CAMBRIDGE MD     1042   55 67              1029.5R
LEWISETTA VA     1042   58 66  250/  2/  3 1028.5R
RAPPAHANNOCK LGT 1042           80/  4/  4 1029.0R
STINGRAY PT      1100   64 69  320/  4/  4 1028.8    0
YORK RVR RNG VA  1042   64     360/  4/  5 1028.8R
YORKTOWN VA      1042   61 69  320/  2/  2 1028.0R
JAMESTOWN VA     1100      69   70/  2/  4   N/A     0
DOMINION TERM VA 1042   63        CALM     1028.3R
KIPTOPEKE VA     1042      67   80/  4/  4   N/A
CAPE HENRY VA    1042   65        CALM       N/A
WILLOUBY STN VA  1042   64     360/  2/  2 1028.1R
S CRANEY ISL VA  1042   58     350/  2/  2 1027.9R
CAPE HENRY BUOY  1100      70                N/A     2/ 8
1ST LANDING BUOY 1100   66 68              1028.1    1/ 4
CAPE CHARLES BUO 1051      69                N/A     2/ 8
64NM E OF VA BCH 1050   69 68   80/  6/  6 1028.3R   3/ 8   2/ 8
DUCK PIER NC     1042   69 70   60/  7/  8 1027.2R
44100 DUCK FRF   1024      70                N/A     2/25   2/25
44056 DUCK FRF   1100      70                N/A     2/ 8
OREGON INLET NC  1042   69 71   40/  5/  6 1027.2R
HATTERAS NC      1042   69 72   60/  4/  5 1026.8R
DIAMOND SHLS NC  1050   75 81   70/  6/ 10 1026.6R   3/ 8   3/ 8
CAPE LOOKOUT NC  1100   67     360/  6/  7 1026.2R
$$




USA.gov is the U.S. government's official web portal to all federal, state and local government web resources and services.